TimeCST,TemperatureF,Dew PointF,Humidity,Sea Level PressureIn,VisibilityMPH,Wind Direction,Wind SpeedMPH,Gust SpeedMPH,PrecipitationIn,Events,Conditions,WindDirDegrees,DateUTC
12:53 AM,16.0,12.0,84,29.97,8.0,WNW,15.0,-,N/A,,Partly Cloudy,300,2013-02-22 06:53:00
1:53 AM,14.0,10.9,88,30.00,8.0,West,11.5,-,0.00,,Partly Cloudy,280,2013-02-22 07:53:00
2:53 AM,14.0,10.9,88,30.02,9.0,WNW,13.8,-,N/A,,Clear,300,2013-02-22 08:53:00
3:53 AM,14.0,10.0,84,30.00,9.0,NW,17.3,-,N/A,,Clear,310,2013-02-22 09:53:00
4:53 AM,12.9,9.0,84,30.03,9.0,NW,10.4,-,N/A,,Clear,310,2013-02-22 10:53:00
5:53 AM,12.0,9.0,88,30.07,9.0,WNW,10.4,-,N/A,,Clear,290,2013-02-22 11:53:00
6:53 AM,10.9,7.0,84,30.07,9.0,WNW,11.5,-,N/A,,Clear,290,2013-02-22 12:53:00
7:53 AM,12.0,8.1,84,30.07,10.0,NW,11.5,-,N/A,,Clear,320,2013-02-22 13:53:00
8:53 AM,15.1,9.0,77,30.14,10.0,WNW,10.4,-,N/A,,Clear,300,2013-02-22 14:53:00
9:53 AM,18.0,10.9,74,30.17,10.0,West,5.8,-,N/A,,Clear,280,2013-02-22 15:53:00
10:53 AM,19.9,12.0,71,30.17,10.0,WNW,5.8,-,N/A,,Clear,290,2013-02-22 16:53:00
11:53 AM,24.1,12.9,62,30.18,10.0,Calm,Calm,-,N/A,,Clear,0,2013-02-22 17:53:00
12:53 PM,26.1,15.1,63,30.17,10.0,NW,5.8,-,0.00,,Partly Cloudy,320,2013-02-22 18:53:00
1:53 PM,27.0,15.1,61,30.15,10.0,Variable,6.9,-,N/A,,Partly Cloudy,0,2013-02-22 19:53:00
2:53 PM,27.0,16.0,63,30.14,10.0,NNW,6.9,-,N/A,,Scattered Clouds,330,2013-02-22 20:53:00
3:53 PM,25.0,15.1,66,30.14,10.0,NW,9.2,-,N/A,,Scattered Clouds,310,2013-02-22 21:53:00
4:53 PM,24.1,15.1,69,30.14,10.0,NW,6.9,-,N/A,,Mostly Cloudy,320,2013-02-22 22:53:00
5:53 PM,21.0,14.0,74,30.14,10.0,NW,8.1,-,N/A,,Mostly Cloudy,320,2013-02-22 23:53:00
6:53 PM,18.0,12.9,81,30.16,10.0,SW,4.6,-,N/A,,Scattered Clouds,230,2013-02-23 00:53:00
7:53 PM,14.0,10.9,88,30.17,10.0,West,4.6,-,N/A,,Scattered Clouds,260,2013-02-23 01:53:00
8:53 PM,12.9,10.9,92,30.17,10.0,West,3.5,-,N/A,,Partly Cloudy,270,2013-02-23 02:53:00
9:53 PM,12.0,10.0,92,30.18,8.0,WSW,4.6,-,N/A,,Partly Cloudy,240,2013-02-23 03:53:00
10:53 PM,10.0,9.0,95,30.18,8.0,WSW,3.5,-,N/A,,Partly Cloudy,240,2013-02-23 04:53:00
11:53 PM,10.9,9.0,92,30.16,7.0,West,3.5,-,N/A,,Clear,270,2013-02-23 05:53:00